Location: Drummondville
(45.8830°N, 72.4830°W)
Time: 19:10:53
(UTC-04:00)

OTV 5 (USA 277) - Visible Passes

Search period start: 21 October 2017 00:00
Search period end: 31 October 2017 00:00
Orbit: 404 x 417 km, 43.0° (Epoch: 07 September)

Date Brightness Start Highest point End Pass type
(mag) Time Alt. Az. Time Alt. Az. Time Alt. Az.
21 Oct ? 18:30:10 10° W 18:33:14 33° SSW 18:36:19 10° SE visible
21 Oct ? 20:09:08 10° SW 20:09:55 11° SSW 20:10:11 11° SSW visible
22 Oct ? 19:17:02 10° WSW 19:19:03 15° SSW 19:21:04 10° S visible
23 Oct ? 18:25:36 10° WSW 18:28:09 20° SSW 18:30:43 10° SSE visible
25 Oct ? 18:22:14 10° SW 18:22:56 10° SSW 18:23:38 10° SSW visible
